This is the latest recevied weather packets stored in our database for station/object ALTO-WX. If no packets are shown the sender has not sent any weather packets the latest 10 day(s).
| Time | Temp. | Humidity | Pressure | Rain* | Wind** | Luminosity | Snow |
|---|---|---|---|---|---|---|---|
| 1777583735 | 8.89° C | 45% | 985.8 hPa | 0 mm | - | - | - |
| 1777582854 | 9.44° C | 45% | 985.8 hPa | 0 mm | - | - | - |
| 1777581935 | 9.44° C | 44% | 985.3 hPa | 0 mm | - | - | - |
| 1777581052 | 9.44° C | 43% | 985.1 hPa | 0 mm | - | - | - |
| 1777580135 | 9.44° C | 43% | 985.1 hPa | 0 mm | - | - | - |
| 1777579260 | 9.44° C | 43% | 985.1 hPa | 0 mm | - | - | - |
| 1777578335 | 9.44° C | 43% | 985.4 hPa | 0 mm | - | - | - |
| 1777577448 | 9.44° C | 43% | 985.4 hPa | 0 mm | - | - | - |
| 1777576535 | 9.44° C | 43% | 985.4 hPa | 0 mm | - | - | - |
| 1777575658 | 9.44° C | 43% | 985.4 hPa | 0 mm | - | - | - |
| 1777574736 | 9.44° C | 49% | 985.2 hPa | 0 mm | - | - | - |
| 1777573846 | 9.44° C | 50% | 985 hPa | 0 mm | - | - | - |
| 1777572933 | 9.44° C | 50% | 984.9 hPa | 0 mm | - | - | - |
| 1777572061 | 9.44° C | 50% | 984.9 hPa | 0 mm | - | - | - |
| 1777571134 | 9.44° C | 52% | 985.4 hPa | 0 mm | - | - | - |
| 1777570250 | 8.89° C | 53% | 985.9 hPa | 0 mm | - | - | - |
| 1777569334 | 8.89° C | 53% | 985.9 hPa | 0 mm | - | - | - |
| 1777568457 | 8.89° C | 53% | 985.9 hPa | 0 mm | - | - | - |
| 1777567533 | 8.33° C | 58% | 984.7 hPa | 0 mm | - | - | - |
| 1777566651 | 8.33° C | 63% | 985.1 hPa | 0 mm | - | - | - |
| 1777565733 | 8.33° C | 63% | 985.1 hPa | 0 mm | - | - | - |
| 1777564863 | 8.33° C | 63% | 985.1 hPa | 0 mm | - | - | - |
| 1777563933 | 7.78° C | 69% | 984.9 hPa | 0 mm | - | - | - |
| 1777563052 | 7.78° C | 71% | 985.4 hPa | 0 mm | - | - | - |
| 1777562134 | 7.22° C | 71% | 985.4 hPa | 0 mm | - | - | - |
* Rain latest hour (hover to see other rain measurements)
** Current wind speed in m/s (hover to see current wind gust speed)